Погода в Новоселенгинске

Погода в Новоселенгинске : погода сейчас, прогноз погоды и архив. Всё, что Вы хотите узнать о погоде в Новоселенгинске!

Поиск расширенной информации на нашем сайте:

Другие новости

Новости СМИ2

Главная страница сайта

Новости сайта

02.10.2013

Напоминаем, что на нашем новом сайте вы можете получить высокодетализированные прогнозы погоды по пунктам России, СНГ и мира (включающие важные для авиации метеовеличины, такие как направление и скорость ветра, видимость, явления погоды, количество и форма облачности, нижняя и верхняя граница облачности), а также ознакомиться с разнообразными материалами по авиационной метеорологии и подборкой полезных ссылок на эту тему.

Сайт Метеоцентр.Азия посвящён разработке технологий оптимизации авиаметеорологического обслуживания, включая проектирование и перспективное создание нескольких автоматизированных авиаметеорологических систем:
- система выпуска высокодетальных прогностических карт явлений погоды для нижнего воздушного пространства по России и ближнему зарубежью;
- система верификации прогнозов TAF (выпускаемых синоптиками официальных АМСГ РФ и ближнего зарубежья) и AUTOTAF (выпускаемых сайтом Метеоцентр.Азия) - выявление ошибок, онлайн-сопоставление с фактической погодой METAR, автоматическое внесение коррективов в прогнозы при резком отклонении фактической погоды от прогноза, подсчёт оправдываемости прогнозов по элементам и в целом;
- система обработки, анализа и отображения авиаметеорологической информации для применения провайдерами метеорологической информации.

Рекомендуем: купить хозтовары спб

Погода в Новоселенгинске - сегодня

Время (UTC), дата Ветер
(°,м/с) 
Видим.   Явления Облачность Т
(°С)
Тd
(°С)
f(%) Тe
(°С)
Pmin
(гПа)
dP
(гПа)
Po
(мм)
O2
(г/м3)
Тmin Tmax R s Состояние
почвы
09 24.06.17 240 (ЮЗ) 20000 м    6/0 верхняя 
[Ci fib]
+37.1 +1.2 11 +37  997.2  -1.7  704  249           
12 24.06.17 230 (ЮЗ) 20000 м    10/0 средняя, верхняя 
[Ac trans|Ci fib]
+34.7 +4.2 15 +35  997.6  -0.1  704  251    +37.2       
15 24.06.17 320 (СЗ) 50000 м    8/0 средняя, верхняя 
[Ac trans|Ci fib]
+23.3 +5.2 31 +23  1000.5  0.6  704  261           
18 24.06.17 130 (ЮВ) 50000 м    10/3 600 м кучево-дожд., средняя, верхняя 
[Cb cap|Ac trans|Ci fib]
+23.5 +6.9 34 +24  1001.3  0.7  705  260           
21 24.06.17 270 (З) 20000 м    8/3 1000 м средняя, верхняя 
[Sc|Ac lent|Ci fib]
+21.8 +5.8 35 +22  1001.6  -0.1  705  262           
00 25.06.17 190 (Ю) 20000 м    10/0 средняя, верхняя 
[Ac trans|Ci fib]
+24.1 +6.6 32 +24  1002.2  706  260  +19.4        сухая 
03 25.06.17 190 (Ю) 20000 м    10/0 средняя, верхняя 
[Ac trans|Ci fib]
+31 +4.7 19 +31  999.8  -1  705  254           
06 25.06.17 200 (Ю) 20000 м    10/0 средняя, верхняя 
[Ac trans|Ci fib]
+35.9 +4.4 14 +36  997.1  -1.6  704  250           
09 25.06.17 230 (ЮЗ) 20000 м    8/0 средняя, верхняя 
[Ac trans|Ci fib]
+36.2 +1.7 11 +36  995.8  -1.2  703  250           
12 25.06.17 310 (СЗ) 20000 м    10/3 600 м кучево-дожд., средняя, верхняя 
[Cb cap|Ac trans|Ci sp]
+32.7 +5.5 18 +33  996.8  0.3  703  252    +37.1       
15 25.06.17 250 (З) 1{11}  20000 м    10/3 1000 м средняя, верхняя 
[Sc|Ac trans|Ci fib]
+25.7 +10.6 39 +29  999.5  1.2  704  257           
18 25.06.17 280 (З) 50000 м    6/0 верхняя 
[Ci fib]
+21.6 +10.3 49 +24  1000.6  0.2  704  261           
21 25.06.17 260 (З) 20000 м    4/0 средняя, верхняя 
[Ac cast|Ci fib]
+17.9 +12.5 71 +25  1002.2  0.7  705  264           
00 26.06.17 200 (Ю) 20000 м    5/0 средняя, верхняя 
[Ac cast|Ci fib]
+23.4 +13.7 54 +31  1001.2  0.2  705  259  +17.2        сухая 
03 26.06.17 200 (Ю) 20000 м    5/0 средняя, верхняя 
[Ac trans|Ci fib]
+31 +10.8 29 +35  998.3  -1.3  704  253           
06 26.06.17 160 (Ю) 20000 м    3/1 1000 м средняя, верхняя 
[Cu med, cong|Ac lent|Ci fib]
+36.8 +6.7 16 +37  995.5  -1.7  703  248           
12 26.06.17 080 (В) 3{12}  20000 м  гроза без осадков{ливн. осадки}  10/3 600 м кучево-дожд., средняя 
[Cb cap|Ac cuf]
+25.2 +16.5 59 +39  999.5  2.4  704  256    +38.7     
15 26.06.17 350 (С) 10 км  дым{гроза}  5/0 верхняя 
[Ci fib]
+25.2 +15.2 54 +36  1001.2  1.5  705  257           
18 26.06.17 360 (С) 10 км  дым{гроза}  3/0 верхняя 
[Ci fib]
+23.5 +15.7 62 +35  1003.1  1.5  706  259           
21 26.06.17 020 (С) 11000 м  дым  10/3 600 м кучево-дожд., средняя, верхняя 
[Cb cap|Ac trans|Ci fib]
+22.2 +16 68 +34  1004.7  1.2  707  260           
00 27.06.17 020 (С) 23000 м  дым  4/1 1000 м средняя 
[Sc|Ac trans]
+24.3 +14.2 53 +33  1005.2  0.9  708  259  +21.4        сухая 
03 27.06.17 360 (С) 4{13}  20000 м    10/3 1000 м средняя 
[Sc|Ac trans]
+26.9 +13.1 43 +34  1004.8  0.1  708  257           
06 27.06.17 020 (С) 4{10}  20000 м    10/0 средняя, верхняя 
[Ac trans|Ci fib]
+28.4 +12.4 37 +34  1004.6  0.1  708  256           
12 27.06.17 010 (С) 6{12}  29000 м  дым  8/0 средняя, верхняя 
[Ac lent|Ci fib]
+27.2 +11.8 38 +32  1003.7  0.4  707  257    +30.1       
15 27.06.17 050 (СВ) 20000 м  дым  10/1 1000 м средняя 
[Sc|Ac As]
+23.8 +13.5 52 +31  1006.3  1.8  708  260           
Время (UTC), дата Ветер
(°,м/с) 
Видим.   Явления Облачность Т
(°С)
Тd
(°С)
f(%) Тe
(°С)
Pmin
(гПа)
dP
(гПа)
Po
(мм)
O2
(г/м3)
Тmin Tmax R s Состояние
почвы

Для получения пояснительной информации подведите курсор к названию столбца.

ПОГОДА в Новоселенгинске - архив

Всё, что Вы хотите узнать о погоде в Новоселенгинске - удобно и подробно!

Выберите нужную дату (начиная с 1 января 2015* года) и нажмите кнопку "Найти".
Будут отображены архивные сводки погоды по пункту Новоселенгинск, начиная с указанной даты.


Отображать данные в формате CSV (для использования в таблицах Excel)


Внимание! Наш архив погоды предназначен исключительно для личного некоммерческого использования в познавательных целях. Если Вам необходимы официальные справки о состоянии погоды (для производственных, юридических, коммерческих и т.п. целей), обращайтесь в органы Росгидромета.

*Примечание: данная дата относится к архиву по метеостанциям СССР (Россия, СНГ, Балтия).
Архив по метеостанциям Зарубежной Европы и Азии (кроме Китая) хранится 10 дней, по другим регионам земного шара (Китай, Африка, Америка, Австралия, Океания) - 1 день.

Новоселенгинск - район местоположения метеостанции


Название, широта, долгота, высота метеостанции:
Новоселенгинск 51.1°ш. 106.6°д. 556 м над ур. моря [Российская Федерация]

Дополнительная информация

В oтличие oт бoльшинства пoгoдных сайтoв мы публикуем пoдрoбную метеoинфoрмацию в детальнoм прoфессиoнальнoм фoрмате.

Характеристики температуры и влажнoсти вoздуха измеряются на высoте 2 м в тени вдали oт зданий и деревьев.
Скoрoсть ветра измеряется на высoте 10 м (на урoвне рoста челoвека скoрoсть ветра ниже в 1.5-2 раза). Если метеoстанция нахoдится в гoрoде или в лесу, тo скoрoсть ветра занижена на 2-4 м/с пo сравнению с oткрытым местoм. Скoрoсть ветра над акватoриями крупных рек и oзёр, а также на вершинах хoлмoв на 2-5 м/с выше, чем в oбычных услoвиях.
Атмoсфернoе давление в разных тoчках местнoсти мoжет значительнo oтличаться oт давления на метеoстанции, в зависимoсти oт услoвий рельефа (при пoдъёме на 10 м давление пoнижается примернo на 1 мм рт.ст.).